Weather History for Kankakee, IL

Change the Weather History Date:

Sunday, February 19, 2012

  Actual Average Record
Temperature  
Mean Temperature 29 °F -  
Max Temperature 38 °F 39 °F 54 °F (1983)
Min Temperature 20 °F 22 °F -9 °F (1979)
Degree Days  
Heating Degree Days 36    
Moisture  
Dew Point 20 °F    
Average Humidity 71    
Maximum Humidity 87    
Minimum Humidity 46    
Precipitation  
Precipitation 0.00 in - - ()
Sea Level Pressure  
Sea Level Pressure 30.18 in    
Wind  
Wind Speed 6 mph (NNE)    
Max Wind Speed 10 mph    
Max Gust Speed 16 mph    
Visibility 10 miles    
Events      
Averages and records for this station are not official NWS values.
T = Trace of Precipitation, MM = Missing Value Source: NWS Daily Summary

Daily Weather History Graph

Daily Weather History Graph

Search for Another Location

Airport:

Trip Planner

Search our weather history database for the weather conditions in past years. The results will help you decide how hot, cold, wet, or windy it might be!

Date:

Astronomy

Feb. 19, 2012 Rise Set
Actual Time 6:41 AM CST 5:30 PM CST
Civil Twilight 6:13 AM CST 5:58 PM CST
Nautical Twilight 5:41 AM CST 6:30 PM CST
Astronomical Twilight 5:09 AM CST 7:02 PM CST
Moon 5:02 AM CST (2/19) 3:30 PM CST (2/19)
Length of Visible Light 11h 44m
Length of Day
10h 48m
Waning Crescent, 5% of the Moon is Illuminated
Feb 19
Waning Crescent
Feb 21
New
Feb 29
First Quarter
Mar 8
Full
Mar 14
Last Quarter

Hourly Weather History & Observations

Time (CST) Temp. Windchill Dew Point Humidity Pressure Visibility Wind Dir Wind Speed Gust Speed Precip Events Conditions
12:15 AM 24.3 °F 18.4 °F 19.6 °F 82% 30.21 in 10.0 mi NE 4.6 mph - N/A   Clear
12:35 AM 23.4 °F 16.2 °F 19.6 °F 85% 30.21 in 10.0 mi NE 5.8 mph - N/A   Clear
12:55 AM 23.5 °F 17.6 °F 19.4 °F 84% 30.21 in 10.0 mi NNE 4.6 mph - N/A   Clear
1:15 AM 23.5 °F 17.6 °F 19.9 °F 86% 30.20 in 10.0 mi NNE 4.6 mph - N/A   Clear
1:35 AM 23.0 °F 15.8 °F 19.4 °F 86% 30.19 in 10.0 mi NE 5.8 mph - N/A   Clear
1:55 AM 23.7 °F 15.6 °F 20.5 °F 87% 30.18 in 10.0 mi NNE 6.9 mph - N/A   Clear
2:15 AM 24.3 °F 16.3 °F 20.3 °F 85% 30.18 in 10.0 mi NNE 6.9 mph - N/A   Clear
2:35 AM 23.9 °F 15.8 °F 20.3 °F 86% 30.17 in 10.0 mi NE 6.9 mph - N/A   Clear
2:55 AM 23.0 °F 15.8 °F 19.4 °F 86% 30.17 in 10.0 mi NE 5.8 mph - N/A   Clear
3:15 AM 23.0 °F 15.8 °F 19.4 °F 86% 30.16 in 10.0 mi NE 5.8 mph - N/A   Clear
3:35 AM 23.4 °F 16.2 °F 19.9 °F 87% 30.16 in 10.0 mi NNE 5.8 mph - N/A   Clear
3:55 AM 23.4 °F 16.2 °F 19.4 °F 85% 30.16 in 10.0 mi NE 5.8 mph - N/A   Clear
4:15 AM 23.0 °F 15.8 °F 19.4 °F 86% 30.17 in 10.0 mi NNE 5.8 mph - N/A   Clear
4:35 AM 22.8 °F 15.5 °F 19.0 °F 85% 30.17 in 10.0 mi NNE 5.8 mph - N/A   Clear
4:55 AM 22.3 °F 16.1 °F 18.9 °F 87% 30.17 in 10.0 mi NNE 4.6 mph - N/A   Clear
5:15 AM 22.8 °F 16.7 °F 19.0 °F 85% 30.17 in 10.0 mi NNE 4.6 mph - N/A   Clear
5:35 AM 22.6 °F 16.5 °F 19.0 °F 86% 30.17 in 10.0 mi NNE 4.6 mph - N/A   Clear
5:55 AM 22.8 °F 16.7 °F 19.0 °F 85% 30.18 in 10.0 mi North 4.6 mph - N/A   Clear
6:15 AM 22.6 °F 16.5 °F 18.9 °F 85% 30.18 in 10.0 mi NNE 4.6 mph - N/A   Clear
6:35 AM 21.9 °F 15.7 °F 18.3 °F 86% 30.19 in 10.0 mi NNE 4.6 mph - N/A   Clear
6:55 AM 21.7 °F 15.5 °F 18.3 °F 87% 30.19 in 10.0 mi NNE 4.6 mph - N/A   Clear
7:15 AM 20.8 °F 14.4 °F 17.6 °F 87% 30.19 in 10.0 mi NNE 4.6 mph - N/A   Clear
7:35 AM 21.6 °F 14.0 °F 18.3 °F 87% 30.21 in 10.0 mi NNE 5.8 mph - N/A   Clear
7:55 AM 24.4 °F 16.5 °F 20.3 °F 84% 30.21 in 10.0 mi NE 6.9 mph - N/A   Clear
8:15 AM 26.2 °F 17.8 °F 21.2 °F 81% 30.21 in 10.0 mi NE 8.1 mph - N/A   Clear
8:35 AM 27.9 °F 19.8 °F 21.9 °F 78% 30.21 in 10.0 mi ENE 8.1 mph - N/A   Scattered Clouds
8:55 AM 29.3 °F 21.5 °F 21.9 °F 74% 30.21 in 10.0 mi NE 8.1 mph - N/A   Clear
9:15 AM 30.2 °F 24.3 °F 22.3 °F 72% 30.21 in 10.0 mi NE 5.8 mph - N/A   Clear
9:35 AM 31.6 °F 25.1 °F 22.6 °F 69% 30.20 in 10.0 mi ENE 6.9 mph - N/A   Clear
9:55 AM 32.0 °F 25.6 °F 21.4 °F 65% 30.20 in 10.0 mi ENE 6.9 mph - N/A   Clear
10:15 AM 32.9 °F 26.7 °F 21.0 °F 62% 30.20 in 10.0 mi ENE 6.9 mph - N/A   Clear
10:35 AM 33.3 °F 27.1 °F 20.5 °F 59% 30.20 in 10.0 mi East 6.9 mph - N/A   Clear
10:55 AM 33.8 °F 25.8 °F 21.2 °F 60% 30.19 in 10.0 mi ENE 10.4 mph - N/A   Clear
11:15 AM 34.9 °F 27.7 °F 19.9 °F 55% 30.19 in 10.0 mi NNE 9.2 mph - N/A   Clear
12:15 PM 35.8 °F 28.8 °F 20.3 °F 53% 30.18 in 10.0 mi NNE 9.2 mph - N/A   Clear
12:35 PM 35.8 °F 28.8 °F 20.5 °F 54% 30.17 in 10.0 mi NNE 9.2 mph - N/A   Clear
12:55 PM 36.0 °F 29.0 °F 20.3 °F 53% 30.16 in 10.0 mi NE 9.2 mph 16.1 mph N/A   Clear
1:15 PM 37.4 °F 30.8 °F 19.4 °F 48% 30.16 in 10.0 mi NNE 9.2 mph - N/A   Clear
1:35 PM 37.6 °F 30.5 °F 20.3 °F 50% 30.15 in 10.0 mi NE 10.4 mph 16.1 mph N/A   Clear
1:55 PM 38.1 °F 31.2 °F 18.9 °F 46% 30.15 in 10.0 mi NNE 10.4 mph - N/A   Clear
2:15 PM 37.8 °F 31.8 °F 18.9 °F 47% 30.14 in 10.0 mi North 8.1 mph - N/A   Clear
2:35 PM 37.4 °F 31.4 °F 19.6 °F 49% 30.14 in 10.0 mi North 8.1 mph - N/A   Clear
2:55 PM 37.4 °F 31.4 °F 19.8 °F 49% 30.14 in 10.0 mi North 8.1 mph - N/A   Clear
3:15 PM 37.4 °F 31.4 °F 19.0 °F 48% 30.13 in 10.0 mi NNE 8.1 mph - N/A   Clear
3:35 PM 38.1 °F 32.9 °F 19.2 °F 47% 30.13 in 10.0 mi NNE 6.9 mph - N/A   Clear
3:55 PM 37.9 °F 31.5 °F 18.9 °F 46% 30.13 in 10.0 mi NNE 9.2 mph - N/A   Clear
4:15 PM 37.2 °F 30.6 °F 18.3 °F 46% 30.13 in 10.0 mi North 9.2 mph - N/A   Clear
4:35 PM 36.7 °F 29.9 °F 19.0 °F 49% 30.14 in 10.0 mi North 9.2 mph - N/A   Clear
4:55 PM 35.6 °F 28.6 °F 17.4 °F 48% 30.14 in 10.0 mi NNE 9.2 mph - N/A   Clear
5:15 PM 34.0 °F 27.2 °F 18.1 °F 52% 30.15 in 10.0 mi NNE 8.1 mph - N/A   Clear
5:35 PM 32.5 °F 25.5 °F 18.1 °F 55% 30.15 in 10.0 mi NNE 8.1 mph - N/A   Clear
5:55 PM 32.0 °F 27.5 °F 19.4 °F 60% 30.16 in 10.0 mi NNE 4.6 mph - N/A   Clear
6:15 PM 30.9 °F 25.2 °F 21.0 °F 67% 30.17 in 10.0 mi NNE 5.8 mph - N/A   Clear
6:35 PM 30.4 °F 24.5 °F 21.4 °F 69% 30.18 in 10.0 mi NNE 5.8 mph - N/A   Clear
6:55 PM 29.3 °F 23.2 °F 22.1 °F 75% 30.18 in 10.0 mi NNE 5.8 mph - N/A   Clear
7:15 PM 29.1 °F 23.0 °F 21.7 °F 74% 30.19 in 10.0 mi NNE 5.8 mph - N/A   Clear
7:35 PM 27.9 °F 21.5 °F 21.9 °F 78% 30.18 in 10.0 mi NE 5.8 mph - N/A   Clear
7:55 PM 27.5 °F 22.2 °F 22.1 °F 80% 30.20 in 10.0 mi NNE 4.6 mph - N/A   Clear
8:15 PM 27.0 °F 23.0 °F 21.9 °F 81% 30.21 in 10.0 mi NNE 3.5 mph - N/A   Clear
8:35 PM 27.1 °F - 22.3 °F 82% 30.21 in 10.0 mi Calm Calm - N/A   Clear
8:55 PM 26.2 °F - 21.9 °F 84% 30.22 in 10.0 mi Calm Calm - N/A   Clear
9:15 PM 25.9 °F 21.7 °F 21.9 °F 85% 30.22 in 10.0 mi NE 3.5 mph - N/A   Clear
9:35 PM 26.2 °F - 22.1 °F 84% 30.23 in 10.0 mi Calm Calm - N/A   Clear
9:55 PM 25.0 °F 20.7 °F 21.6 °F 87% 30.22 in 10.0 mi NE 3.5 mph - N/A   Clear
10:15 PM 25.3 °F 21.1 °F 21.9 °F 87% 30.21 in 10.0 mi NE 3.5 mph - N/A   Clear
10:35 PM 25.5 °F 19.9 °F 23.0 °F 90% 30.21 in 10.0 mi East 4.6 mph - N/A   Clear
10:55 PM 25.5 °F - 21.7 °F 86% 30.21 in 10.0 mi Calm Calm - N/A   Clear
11:15 PM 24.6 °F 20.3 °F 21.9 °F 89% 30.21 in 10.0 mi ENE 3.5 mph - N/A   Clear
11:35 PM 25.5 °F 21.3 °F 22.1 °F 87% 30.21 in 10.0 mi East 3.5 mph - N/A   Clear
11:55 PM 25.2 °F - 21.2 °F 85% 30.21 in 10.0 mi Calm Calm - N/A   Clear